Time,TemperatureF,DewpointF,PressureIn,WindDirection,WindDirectionDegrees,WindSpeedMPH,WindSpeedGustMPH,Humidity,HourlyPrecipIn,Conditions,Clouds,dailyrainin,SoftwareType,DateUTC
2013-02-21 00:03:00,38.9,38.4,30.12,SSW,207,0.0,0.0,98,0.00,,,0.43,Wunderground v.1.15,2013-02-21 08:03:00,
2013-02-21 00:08:00,38.9,38.4,30.12,SSW,207,0.0,0.0,98,0.00,,,0.00,Wunderground v.1.15,2013-02-21 08:08:00,
2013-02-21 00:14:00,38.8,38.3,30.13,SSW,207,0.0,0.0,98,0.00,,,0.00,Wunderground v.1.15,2013-02-21 08:14:00,
2013-02-21 00:20:00,38.7,38.2,30.13,SSW,207,0.0,0.0,98,0.00,,,0.00,Wunderground v.1.15,2013-02-21 08:20:00,
2013-02-21 00:25:00,38.5,38.0,30.13,SSW,207,0.0,0.0,98,0.00,,,0.00,Wunderground v.1.15,2013-02-21 08:25:00,
2013-02-21 00:31:00,38.4,37.9,30.13,SSW,207,0.0,0.0,98,0.00,,,0.00,Wunderground v.1.15,2013-02-21 08:31:00,
2013-02-21 00:37:00,38.3,37.8,30.13,SSW,207,0.0,0.0,98,0.00,,,0.00,Wunderground v.1.15,2013-02-21 08:37:00,
2013-02-21 00:42:00,38.3,37.8,30.13,SSW,207,0.0,0.0,98,0.00,,,0.00,Wunderground v.1.15,2013-02-21 08:42:00,
2013-02-21 00:48:00,38.3,37.8,30.13,SSW,207,0.0,0.0,98,0.00,,,0.00,Wunderground v.1.15,2013-02-21 08:48:00,
2013-02-21 00:54:00,38.3,37.8,30.13,SSW,207,0.0,0.0,98,0.00,,,0.00,Wunderground v.1.15,2013-02-21 08:54:00,
2013-02-21 01:00:00,38.3,37.8,30.14,SSW,207,0.0,0.0,98,0.00,,,0.00,Wunderground v.1.15,2013-02-21 09:00:00,
2013-02-21 01:06:00,38.2,37.7,30.14,SSW,207,0.0,0.0,98,0.00,,,0.00,Wunderground v.1.15,2013-02-21 09:06:00,
2013-02-21 01:12:00,38.2,37.7,30.14,SSW,207,0.0,0.0,98,0.00,,,0.00,Wunderground v.1.15,2013-02-21 09:12:00,
2013-02-21 01:18:00,38.0,37.5,30.14,SSW,207,0.0,0.0,98,0.00,,,0.00,Wunderground v.1.15,2013-02-21 09:18:00,
2013-02-21 01:24:00,37.9,37.4,30.14,SSW,207,0.0,0.0,98,0.00,,,0.00,Wunderground v.1.15,2013-02-21 09:24:00,
2013-02-21 01:30:00,37.8,37.3,30.14,SSW,207,0.0,0.0,98,0.00,,,0.00,Wunderground v.1.15,2013-02-21 09:30:00,
2013-02-21 01:36:00,37.7,37.2,30.15,SSW,207,0.0,0.0,98,0.00,,,0.00,Wunderground v.1.15,2013-02-21 09:36:00,
2013-02-21 01:42:00,37.7,37.2,30.15,SSW,207,0.0,0.0,98,0.00,,,0.00,Wunderground v.1.15,2013-02-21 09:42:00,
2013-02-21 01:47:00,37.7,37.2,30.15,SSW,207,0.0,0.0,98,0.00,,,0.00,Wunderground v.1.15,2013-02-21 09:47:00,
2013-02-21 01:53:00,37.7,37.2,30.16,SSW,207,0.0,0.0,98,0.00,,,0.00,Wunderground v.1.15,2013-02-21 09:53:00,
2013-02-21 01:59:00,37.7,37.2,30.16,SSW,207,0.0,0.0,98,0.00,,,0.00,Wunderground v.1.15,2013-02-21 09:59:00,
2013-02-21 02:05:00,37.7,37.2,30.17,SSW,207,0.0,0.0,98,0.00,,,0.00,Wunderground v.1.15,2013-02-21 10:05:00,
2013-02-21 02:11:00,37.8,37.3,30.17,SSW,207,0.0,0.0,98,0.00,,,0.00,Wunderground v.1.15,2013-02-21 10:11:00,
2013-02-21 02:17:00,37.8,37.3,30.16,SSW,207,0.0,0.0,98,0.00,,,0.00,Wunderground v.1.15,2013-02-21 10:17:00,
2013-02-21 02:23:00,37.9,37.4,30.16,SSW,207,0.0,0.0,98,0.00,,,0.00,Wunderground v.1.15,2013-02-21 10:23:00,
2013-02-21 02:29:00,37.9,37.4,30.17,SSW,207,0.0,1.0,98,0.00,,,0.00,Wunderground v.1.15,2013-02-21 10:29:00,
2013-02-21 02:35:00,37.9,37.4,30.16,SSW,207,0.0,0.0,98,0.00,,,0.01,Wunderground v.1.15,2013-02-21 10:35:00,
2013-02-21 02:41:00,37.9,37.4,30.16,SSW,207,0.0,0.0,98,0.00,,,0.01,Wunderground v.1.15,2013-02-21 10:41:00,
2013-02-21 02:47:00,37.9,37.4,30.16,SSW,207,0.0,1.0,98,0.05,,,0.02,Wunderground v.1.15,2013-02-21 10:47:00,
2013-02-21 02:53:00,38.0,37.7,30.16,SSW,207,0.0,0.0,99,0.05,,,0.02,Wunderground v.1.15,2013-02-21 10:53:00,
2013-02-21 02:58:00,38.0,37.5,30.17,SSW,207,0.0,0.0,98,0.04,,,0.02,Wunderground v.1.15,2013-02-21 10:58:00,
2013-02-21 03:04:00,38.1,37.8,30.17,SSW,207,0.0,1.0,99,0.00,,,0.02,Wunderground v.1.15,2013-02-21 11:04:00,
2013-02-21 03:10:00,38.1,37.6,30.17,SSW,207,0.0,0.0,98,0.00,,,0.02,Wunderground v.1.15,2013-02-21 11:10:00,
2013-02-21 03:16:00,38.1,37.6,30.17,SSW,207,0.0,0.0,98,0.00,,,0.02,Wunderground v.1.15,2013-02-21 11:16:00,
2013-02-21 03:22:00,38.1,37.8,30.17,SSW,207,0.0,0.0,99,0.00,,,0.02,Wunderground v.1.15,2013-02-21 11:22:00,
2013-02-21 03:28:00,38.1,37.8,30.17,SSW,207,0.0,0.0,99,0.00,,,0.02,Wunderground v.1.15,2013-02-21 11:28:00,
2013-02-21 03:34:00,38.1,37.8,30.17,SSW,207,0.0,0.0,99,0.00,,,0.02,Wunderground v.1.15,2013-02-21 11:34:00,
2013-02-21 03:39:00,38.0,37.7,30.17,SSW,207,0.0,0.0,99,0.00,,,0.03,Wunderground v.1.15,2013-02-21 11:39:00,
2013-02-21 03:45:00,38.1,37.8,30.17,SSW,207,0.0,0.0,99,0.00,,,0.03,Wunderground v.1.15,2013-02-21 11:45:00,
2013-02-21 03:51:00,38.1,37.6,30.17,SSW,207,0.0,0.0,98,0.00,,,0.03,Wunderground v.1.15,2013-02-21 11:51:00,
2013-02-21 03:57:00,38.1,37.6,30.16,SSW,207,0.0,0.0,98,0.00,,,0.03,Wunderground v.1.15,2013-02-21 11:57:00,
2013-02-21 04:03:00,38.1,37.8,30.16,SSW,207,0.0,0.0,99,0.00,,,0.03,Wunderground v.1.15,2013-02-21 12:03:00,
2013-02-21 04:09:00,38.2,37.9,30.16,SSW,207,0.0,0.0,99,0.00,,,0.03,Wunderground v.1.15,2013-02-21 12:09:00,
2013-02-21 04:15:00,38.2,37.9,30.16,SSW,207,0.0,0.0,99,0.00,,,0.03,Wunderground v.1.15,2013-02-21 12:15:00,
2013-02-21 04:21:00,38.2,37.9,30.16,SSW,207,0.0,0.0,99,0.00,,,0.03,Wunderground v.1.15,2013-02-21 12:21:00,
2013-02-21 04:27:00,38.2,37.9,30.17,SSW,207,0.0,0.0,99,0.00,,,0.03,Wunderground v.1.15,2013-02-21 12:27:00,
2013-02-21 04:33:00,38.2,37.9,30.17,SSW,207,0.0,0.0,99,0.00,,,0.03,Wunderground v.1.15,2013-02-21 12:33:00,
2013-02-21 04:39:00,38.2,37.9,30.17,SSW,207,0.0,0.0,99,0.00,,,0.03,Wunderground v.1.15,2013-02-21 12:39:00,
2013-02-21 04:45:00,38.2,37.9,30.17,SSW,207,0.0,0.0,99,0.00,,,0.03,Wunderground v.1.15,2013-02-21 12:45:00,
2013-02-21 04:51:00,38.2,37.9,30.17,SSW,207,0.0,0.0,99,0.00,,,0.03,Wunderground v.1.15,2013-02-21 12:51:00,
2013-02-21 04:57:00,38.2,37.9,30.17,SSW,207,0.0,0.0,99,0.00,,,0.03,Wunderground v.1.15,2013-02-21 12:57:00,
2013-02-21 05:03:00,38.2,37.9,30.17,SSW,207,0.0,0.0,99,0.00,,,0.03,Wunderground v.1.15,2013-02-21 13:03:00,
2013-02-21 05:09:00,38.2,37.9,30.17,SSW,207,0.0,0.0,99,0.00,,,0.03,Wunderground v.1.15,2013-02-21 13:09:00,
2013-02-21 05:15:00,38.1,37.8,30.17,SSW,207,0.0,0.0,99,0.00,,,0.03,Wunderground v.1.15,2013-02-21 13:15:00,
2013-02-21 05:21:00,38.1,37.8,30.18,SSW,207,0.0,0.0,99,0.00,,,0.03,Wunderground v.1.15,2013-02-21 13:21:00,
2013-02-21 05:27:00,38.1,37.8,30.19,SSW,207,0.0,0.0,99,0.00,,,0.03,Wunderground v.1.15,2013-02-21 13:27:00,
2013-02-21 05:33:00,38.1,37.8,30.18,SSW,207,0.0,0.0,99,0.00,,,0.03,Wunderground v.1.15,2013-02-21 13:33:00,
2013-02-21 05:39:00,38.0,37.7,30.18,SSW,207,0.0,0.0,99,0.00,,,0.03,Wunderground v.1.15,2013-02-21 13:39:00,
2013-02-21 05:44:00,38.0,37.7,30.18,SSW,207,0.0,0.0,99,0.00,,,0.03,Wunderground v.1.15,2013-02-21 13:44:00,
2013-02-21 05:50:00,38.1,37.8,30.18,SSW,207,0.0,0.0,99,0.00,,,0.03,Wunderground v.1.15,2013-02-21 13:50:00,
2013-02-21 05:56:00,38.1,37.8,30.18,SSW,207,0.0,0.0,99,0.00,,,0.03,Wunderground v.1.15,2013-02-21 13:56:00,
2013-02-21 06:02:00,38.1,37.8,30.18,SSW,207,0.0,0.0,99,0.00,,,0.03,Wunderground v.1.15,2013-02-21 14:02:00,
2013-02-21 06:08:00,38.1,37.8,30.19,West,265,1.0,2.0,99,0.00,,,0.03,Wunderground v.1.15,2013-02-21 14:08:00,
2013-02-21 06:14:00,38.2,37.9,30.18,West,262,1.0,2.0,99,0.00,,,0.03,Wunderground v.1.15,2013-02-21 14:14:00,
2013-02-21 06:20:00,38.2,37.9,30.18,West,263,0.0,0.0,99,0.00,,,0.03,Wunderground v.1.15,2013-02-21 14:20:00,
2013-02-21 06:26:00,38.2,37.9,30.19,West,263,0.0,0.0,99,0.00,,,0.04,Wunderground v.1.15,2013-02-21 14:26:00,
2013-02-21 06:32:00,38.2,37.9,30.19,West,263,0.0,1.0,99,0.00,,,0.04,Wunderground v.1.15,2013-02-21 14:32:00,
2013-02-21 06:37:00,38.2,37.9,30.19,West,263,0.0,1.0,99,0.00,,,0.04,Wunderground v.1.15,2013-02-21 14:37:00,
2013-02-21 06:43:00,38.1,37.8,30.18,NNE,22,0.0,2.0,99,0.00,,,0.04,Wunderground v.1.15,2013-02-21 14:43:00,
2013-02-21 06:49:00,38.0,37.7,30.19,NNE,22,0.0,2.0,99,0.00,,,0.04,Wunderground v.1.15,2013-02-21 14:49:00,
2013-02-21 06:55:00,37.9,37.6,30.18,NNE,22,0.0,0.0,99,0.00,,,0.04,Wunderground v.1.15,2013-02-21 14:55:00,
2013-02-21 07:01:00,37.9,37.6,30.18,NNE,22,0.0,0.0,99,0.00,,,0.04,Wunderground v.1.15,2013-02-21 15:01:00,
2013-02-21 07:07:00,37.7,37.4,30.19,NNE,22,0.0,0.0,99,0.00,,,0.04,Wunderground v.1.15,2013-02-21 15:07:00,
2013-02-21 07:13:00,37.6,37.3,30.19,NNE,22,0.0,0.0,99,0.00,,,0.04,Wunderground v.1.15,2013-02-21 15:13:00,
2013-02-21 07:19:00,37.6,37.3,30.20,NW,308,1.0,3.0,99,0.00,,,0.04,Wunderground v.1.15,2013-02-21 15:19:00,
2013-02-21 07:25:00,37.7,37.4,30.21,NW,308,1.0,1.0,99,0.00,,,0.04,Wunderground v.1.15,2013-02-21 15:25:00,
2013-02-21 07:31:00,37.7,37.4,30.21,NW,308,0.0,1.0,99,0.00,,,0.04,Wunderground v.1.15,2013-02-21 15:31:00,
2013-02-21 07:37:00,37.9,37.6,30.21,NW,308,0.0,1.0,99,0.00,,,0.04,Wunderground v.1.15,2013-02-21 15:37:00,
2013-02-21 07:42:00,37.9,37.6,30.20,NW,308,0.0,0.0,99,0.00,,,0.04,Wunderground v.1.15,2013-02-21 15:42:00,
2013-02-21 07:48:00,38.0,37.7,30.21,NW,308,0.0,0.0,99,0.00,,,0.04,Wunderground v.1.15,2013-02-21 15:48:00,
2013-02-21 07:54:00,38.2,37.9,30.21,NW,308,0.0,0.0,99,0.00,,,0.04,Wunderground v.1.15,2013-02-21 15:54:00,
2013-02-21 08:00:00,38.2,37.9,30.21,NW,308,0.0,0.0,99,0.00,,,0.05,Wunderground v.1.15,2013-02-21 16:00:00,
2013-02-21 08:06:00,38.4,38.1,30.21,NW,308,0.0,0.0,99,0.00,,,0.05,Wunderground v.1.15,2013-02-21 16:06:00,
2013-02-21 08:12:00,38.4,38.1,30.22,NW,308,0.0,0.0,99,0.00,,,0.05,Wunderground v.1.15,2013-02-21 16:12:00,
2013-02-21 08:18:00,38.6,38.3,30.22,NW,308,0.0,0.0,99,0.00,,,0.05,Wunderground v.1.15,2013-02-21 16:18:00,
2013-02-21 08:24:00,38.7,38.4,30.22,NW,308,0.0,0.0,99,0.00,,,0.05,Wunderground v.1.15,2013-02-21 16:24:00,
2013-02-21 08:30:00,38.7,38.4,30.21,NW,308,0.0,0.0,99,0.00,,,0.05,Wunderground v.1.15,2013-02-21 16:30:00,
2013-02-21 08:36:00,38.8,38.5,30.21,NW,308,0.0,0.0,99,0.00,,,0.05,Wunderground v.1.15,2013-02-21 16:36:00,
2013-02-21 08:41:00,38.9,38.6,30.21,NW,308,0.0,0.0,99,0.00,,,0.05,Wunderground v.1.15,2013-02-21 16:41:00,
2013-02-21 08:47:00,39.1,38.8,30.21,NW,308,0.0,0.0,99,0.00,,,0.05,Wunderground v.1.15,2013-02-21 16:47:00,
2013-02-21 08:52:00,39.2,38.9,30.22,NW,308,0.0,0.0,99,0.00,,,0.05,Wunderground v.1.15,2013-02-21 16:52:00,
2013-02-21 08:58:00,39.2,38.9,30.22,NW,308,0.0,0.0,99,0.00,,,0.05,Wunderground v.1.15,2013-02-21 16:58:00,
2013-02-21 09:04:00,39.4,39.1,30.22,NW,308,0.0,0.0,99,0.00,,,0.06,Wunderground v.1.15,2013-02-21 17:04:00,
2013-02-21 09:10:00,39.5,39.2,30.22,NW,308,0.0,0.0,99,0.00,,,0.06,Wunderground v.1.15,2013-02-21 17:10:00,
2013-02-21 09:16:00,39.7,39.4,30.22,NW,308,0.0,0.0,99,0.00,,,0.06,Wunderground v.1.15,2013-02-21 17:16:00,
2013-02-21 09:22:00,39.8,39.5,30.22,NW,308,0.0,0.0,99,0.00,,,0.07,Wunderground v.1.15,2013-02-21 17:22:00,
2013-02-21 09:28:00,39.9,39.6,30.22,NW,308,0.0,0.0,99,0.00,,,0.07,Wunderground v.1.15,2013-02-21 17:28:00,
2013-02-21 09:34:00,40.1,39.8,30.22,NW,308,0.0,0.0,99,0.00,,,0.07,Wunderground v.1.15,2013-02-21 17:34:00,
2013-02-21 09:40:00,40.2,39.9,30.22,NW,308,0.0,0.0,99,0.00,,,0.08,Wunderground v.1.15,2013-02-21 17:40:00,
2013-02-21 09:46:00,40.3,40.0,30.22,NW,308,0.0,0.0,99,0.00,,,0.08,Wunderground v.1.15,2013-02-21 17:46:00,
2013-02-21 09:52:00,40.4,40.1,30.22,NW,308,0.0,0.0,99,0.06,,,0.09,Wunderground v.1.15,2013-02-21 17:52:00,
2013-02-21 09:58:00,40.6,40.3,30.22,NW,308,0.0,0.0,99,0.06,,,0.09,Wunderground v.1.15,2013-02-21 17:58:00,
2013-02-21 10:03:00,40.7,40.4,30.22,NW,308,0.0,0.0,99,0.04,,,0.10,Wunderground v.1.15,2013-02-21 18:03:00,
2013-02-21 10:09:00,40.8,40.5,30.22,NW,308,0.0,0.0,99,0.10,,,0.11,Wunderground v.1.15,2013-02-21 18:09:00,
2013-02-21 10:15:00,41.0,40.7,30.22,NW,308,0.0,0.0,99,0.08,,,0.12,Wunderground v.1.15,2013-02-21 18:15:00,
2013-02-21 10:21:00,41.1,40.8,30.22,NW,308,0.0,1.0,99,0.13,,,0.13,Wunderground v.1.15,2013-02-21 18:21:00,
2013-02-21 10:27:00,41.2,40.9,30.22,NW,308,0.0,1.0,99,0.08,,,0.13,Wunderground v.1.15,2013-02-21 18:27:00,
2013-02-21 10:33:00,41.4,41.1,30.22,NW,308,0.0,1.0,99,0.06,,,0.14,Wunderground v.1.15,2013-02-21 18:33:00,
2013-02-21 10:38:00,41.5,41.2,30.22,NW,308,0.0,1.0,99,0.06,,,0.14,Wunderground v.1.15,2013-02-21 18:38:00,
2013-02-21 10:44:00,41.7,41.4,30.22,NW,308,0.0,0.0,99,0.04,,,0.14,Wunderground v.1.15,2013-02-21 18:44:00,
2013-02-21 10:50:00,41.9,41.6,30.22,NW,308,0.0,1.0,99,0.04,,,0.15,Wunderground v.1.15,2013-02-21 18:50:00,
2013-02-21 10:56:00,42.0,41.7,30.22,NW,308,0.0,1.0,99,0.06,,,0.16,Wunderground v.1.15,2013-02-21 18:56:00,
2013-02-21 11:02:00,42.0,41.7,30.22,West,276,1.0,3.0,99,0.11,,,0.17,Wunderground v.1.15,2013-02-21 19:02:00,
2013-02-21 11:07:00,41.6,41.3,30.23,West,261,2.0,3.0,99,0.11,,,0.17,Wunderground v.1.15,2013-02-21 19:07:00,
2013-02-21 11:13:00,41.3,41.0,30.23,NW,325,2.0,4.0,99,0.06,,,0.18,Wunderground v.1.15,2013-02-21 19:13:00,
2013-02-21 11:18:00,41.3,41.0,30.23,West,277,2.0,4.0,99,0.15,,,0.19,Wunderground v.1.15,2013-02-21 19:18:00,
2013-02-21 11:24:00,41.3,40.8,30.22,West,277,0.0,1.0,98,0.07,,,0.19,Wunderground v.1.15,2013-02-21 19:24:00,
2013-02-21 11:30:00,41.4,40.9,30.21,West,277,0.0,0.0,98,0.04,,,0.19,Wunderground v.1.15,2013-02-21 19:30:00,
2013-02-21 11:36:00,41.5,41.0,30.20,West,270,0.0,1.0,98,0.00,,,0.19,Wunderground v.1.15,2013-02-21 19:36:00,
2013-02-21 11:41:00,41.7,41.2,30.20,West,270,0.0,0.0,98,0.00,,,0.19,Wunderground v.1.15,2013-02-21 19:41:00,
2013-02-21 11:46:00,42.0,41.7,30.20,NW,310,0.0,0.0,99,0.00,,,0.19,Wunderground v.1.15,2013-02-21 19:46:00,
2013-02-21 11:52:00,42.3,42.0,30.20,NNE,15,0.0,1.0,99,0.00,,,0.19,Wunderground v.1.15,2013-02-21 19:52:00,
2013-02-21 11:58:00,42.3,41.8,30.20,NE,43,1.0,2.0,98,0.00,,,0.19,Wunderground v.1.15,2013-02-21 19:58:00,
2013-02-21 12:04:00,42.4,41.9,30.20,SSE,158,0.0,1.0,98,0.00,,,0.19,Wunderground v.1.15,2013-02-21 20:04:00,
2013-02-21 12:09:00,42.6,42.1,30.21,East,89,0.0,1.0,98,0.00,,,0.19,Wunderground v.1.15,2013-02-21 20:09:00,
2013-02-21 12:15:00,42.7,42.2,30.20,East,89,0.0,0.0,98,0.00,,,0.19,Wunderground v.1.15,2013-02-21 20:15:00,
2013-02-21 12:20:00,42.9,42.4,30.20,East,90,0.0,0.0,98,0.00,,,0.19,Wunderground v.1.15,2013-02-21 20:20:00,
2013-02-21 12:26:00,43.2,42.7,30.20,East,90,0.0,0.0,98,0.00,,,0.19,Wunderground v.1.15,2013-02-21 20:26:00,
2013-02-21 12:31:00,43.4,42.9,30.20,South,184,0.0,2.0,98,0.00,,,0.19,Wunderground v.1.15,2013-02-21 20:31:00,
2013-02-21 12:37:00,43.5,43.0,30.20,South,184,0.0,2.0,98,0.00,,,0.19,Wunderground v.1.15,2013-02-21 20:37:00,
2013-02-21 12:43:00,43.6,42.8,30.20,South,184,0.0,0.0,97,0.00,,,0.19,Wunderground v.1.15,2013-02-21 20:43:00,
2013-02-21 12:49:00,43.7,42.9,30.20,South,184,0.0,1.0,97,0.00,,,0.19,Wunderground v.1.15,2013-02-21 20:49:00,
2013-02-21 12:54:00,43.7,42.9,30.20,South,184,0.0,0.0,97,0.00,,,0.19,Wunderground v.1.15,2013-02-21 20:54:00,
2013-02-21 13:00:00,43.7,42.6,30.20,South,184,0.0,0.0,96,0.00,,,0.19,Wunderground v.1.15,2013-02-21 21:00:00,
2013-02-21 13:07:00,43.8,42.7,30.19,South,184,0.0,0.0,96,0.00,,,0.19,Wunderground v.1.15,2013-02-21 21:07:00,
2013-02-21 13:12:00,43.9,43.1,30.19,South,184,0.0,0.0,97,0.00,,,0.19,Wunderground v.1.15,2013-02-21 21:12:00,
2013-02-21 13:17:00,44.0,43.2,30.19,South,184,0.0,1.0,97,0.00,,,0.19,Wunderground v.1.15,2013-02-21 21:17:00,
2013-02-21 13:23:00,44.2,43.4,30.19,South,184,0.0,0.0,97,0.00,,,0.19,Wunderground v.1.15,2013-02-21 21:23:00,
2013-02-21 13:29:00,44.0,42.9,30.19,South,184,0.0,0.0,96,0.00,,,0.19,Wunderground v.1.15,2013-02-21 21:29:00,
2013-02-21 13:35:00,44.0,42.9,30.19,South,184,0.0,0.0,96,0.00,,,0.19,Wunderground v.1.15,2013-02-21 21:35:00,
2013-02-21 13:41:00,43.9,42.8,30.19,South,184,0.0,0.0,96,0.00,,,0.19,Wunderground v.1.15,2013-02-21 21:41:00,
2013-02-21 13:47:00,43.9,42.8,30.18,SSE,151,0.0,5.0,96,0.00,,,0.19,Wunderground v.1.15,2013-02-21 21:47:00,
2013-02-21 13:53:00,44.0,43.2,30.19,SSW,206,1.0,2.0,97,0.00,,,0.19,Wunderground v.1.15,2013-02-21 21:53:00,
2013-02-21 13:59:00,44.1,43.0,30.18,NW,304,1.0,3.0,96,0.00,,,0.19,Wunderground v.1.15,2013-02-21 21:59:00,
2013-02-21 14:05:00,44.2,43.1,30.18,NW,304,1.0,1.0,96,0.00,,,0.19,Wunderground v.1.15,2013-02-21 22:05:00,
2013-02-21 14:11:00,44.2,42.9,30.18,West,275,0.0,0.0,95,0.00,,,0.19,Wunderground v.1.15,2013-02-21 22:11:00,
2013-02-21 14:17:00,44.3,43.2,30.18,SW,220,1.0,4.0,96,0.00,,,0.19,Wunderground v.1.15,2013-02-21 22:17:00,
2013-02-21 14:23:00,44.3,43.0,30.18,SW,215,1.0,2.0,95,0.00,,,0.19,Wunderground v.1.15,2013-02-21 22:23:00,
2013-02-21 14:28:00,44.3,43.2,30.18,SSW,193,0.0,2.0,96,0.00,,,0.19,Wunderground v.1.15,2013-02-21 22:28:00,
2013-02-21 14:34:00,44.3,43.0,30.17,SE,146,0.0,1.0,95,0.00,,,0.19,Wunderground v.1.15,2013-02-21 22:34:00,
2013-02-21 14:40:00,44.2,42.9,30.18,West,266,0.0,1.0,95,0.00,,,0.19,Wunderground v.1.15,2013-02-21 22:40:00,
2013-02-21 14:46:00,44.2,43.1,30.17,WNW,298,0.0,1.0,96,0.00,,,0.19,Wunderground v.1.15,2013-02-21 22:46:00,
2013-02-21 14:52:00,44.1,43.0,30.17,WNW,299,0.0,1.0,96,0.00,,,0.19,Wunderground v.1.15,2013-02-21 22:52:00,
2013-02-21 14:58:00,44.1,43.0,30.17,SSE,153,0.0,2.0,96,0.00,,,0.20,Wunderground v.1.15,2013-02-21 22:58:00,
2013-02-21 15:04:00,44.2,43.1,30.16,NE,39,1.0,3.0,96,0.00,,,0.20,Wunderground v.1.15,2013-02-21 23:04:00,
2013-02-21 15:10:00,44.2,43.1,30.16,NE,52,1.0,1.0,96,0.00,,,0.20,Wunderground v.1.15,2013-02-21 23:10:00,
2013-02-21 15:15:00,44.3,43.2,30.16,NE,42,1.0,2.0,96,0.00,,,0.20,Wunderground v.1.15,2013-02-21 23:15:00,
2013-02-21 15:21:00,44.3,43.2,30.16,SW,231,1.0,2.0,96,0.00,,,0.20,Wunderground v.1.15,2013-02-21 23:21:00,
2013-02-21 15:26:00,44.3,43.2,30.16,SW,231,1.0,2.0,96,0.00,,,0.21,Wunderground v.1.15,2013-02-21 23:26:00,
2013-02-21 15:32:00,44.3,43.2,30.16,SW,231,1.0,4.0,96,0.00,,,0.21,Wunderground v.1.15,2013-02-21 23:32:00,
2013-02-21 15:37:00,44.5,43.4,30.16,WSW,246,2.0,4.0,96,0.00,,,0.21,Wunderground v.1.15,2013-02-21 23:37:00,
2013-02-21 15:42:00,44.5,43.2,30.16,NW,309,2.0,4.0,95,0.00,,,0.21,Wunderground v.1.15,2013-02-21 23:42:00,
2013-02-21 15:48:00,44.6,43.5,30.15,NNE,25,1.0,4.0,96,0.00,,,0.22,Wunderground v.1.15,2013-02-21 23:48:00,
2013-02-21 15:53:00,44.6,43.5,30.16,West,278,1.0,6.0,96,0.00,,,0.22,Wunderground v.1.15,2013-02-21 23:53:00,
2013-02-21 15:59:00,44.7,43.6,30.16,West,277,2.0,6.0,96,0.05,,,0.23,Wunderground v.1.15,2013-02-21 23:59:00,
2013-02-21 16:04:00,44.7,43.4,30.16,West,269,2.0,4.0,95,0.05,,,0.23,Wunderground v.1.15,2013-02-22 00:04:00,
2013-02-21 16:09:00,44.8,43.7,30.15,SSW,209,2.0,4.0,96,0.05,,,0.23,Wunderground v.1.15,2013-02-22 00:09:00,
2013-02-21 16:15:00,44.7,43.6,30.15,West,261,1.0,4.0,96,0.05,,,0.24,Wunderground v.1.15,2013-02-22 00:15:00,
2013-02-21 16:21:00,44.7,43.6,30.15,NW,306,2.0,2.0,96,0.06,,,0.25,Wunderground v.1.15,2013-02-22 00:21:00,
2013-02-21 16:27:00,44.8,43.7,30.15,NW,306,2.0,2.0,96,0.06,,,0.25,Wunderground v.1.15,2013-02-22 00:27:00,
2013-02-21 16:33:00,44.7,43.6,30.16,SE,135,1.0,1.0,96,0.04,,,0.25,Wunderground v.1.15,2013-02-22 00:33:00,
2013-02-21 16:38:00,44.7,43.6,30.16,SSW,202,1.0,3.0,96,0.00,,,0.25,Wunderground v.1.15,2013-02-22 00:38:00,
2013-02-21 16:44:00,44.7,43.6,30.16,West,281,2.0,5.0,96,0.00,,,0.26,Wunderground v.1.15,2013-02-22 00:44:00,
2013-02-21 16:50:00,44.8,43.7,30.16,WSW,242,3.0,6.0,96,0.00,,,0.26,Wunderground v.1.15,2013-02-22 00:50:00,
2013-02-21 16:56:00,45.0,43.9,30.16,WNW,288,3.0,6.0,96,0.04,,,0.27,Wunderground v.1.15,2013-02-22 00:56:00,
2013-02-21 17:01:00,45.0,43.9,30.16,West,278,3.0,3.0,96,0.04,,,0.27,Wunderground v.1.15,2013-02-22 01:01:00,
2013-02-21 17:07:00,45.0,43.9,30.16,West,278,1.0,3.0,96,0.04,,,0.27,Wunderground v.1.15,2013-02-22 01:07:00,
2013-02-21 17:12:00,44.9,43.8,30.16,West,278,0.0,0.0,96,0.04,,,0.27,Wunderground v.1.15,2013-02-22 01:12:00,
2013-02-21 17:18:00,44.9,43.8,30.16,West,275,1.0,3.0,96,0.00,,,0.28,Wunderground v.1.15,2013-02-22 01:18:00,
2013-02-21 17:23:00,44.9,43.8,30.16,WNW,301,1.0,1.0,96,0.12,,,0.29,Wunderground v.1.15,2013-02-22 01:23:00,
2013-02-21 17:29:00,44.9,44.1,30.16,WNW,301,0.0,1.0,97,0.08,,,0.30,Wunderground v.1.15,2013-02-22 01:29:00,
2013-02-21 17:35:00,44.8,44.0,30.16,WNW,301,0.0,1.0,97,0.13,,,0.31,Wunderground v.1.15,2013-02-22 01:35:00,
2013-02-21 17:41:00,44.7,43.9,30.16,WNW,301,0.0,0.0,97,0.07,,,0.31,Wunderground v.1.15,2013-02-22 01:41:00,
2013-02-21 17:47:00,44.7,43.9,30.16,WNW,301,0.0,1.0,97,0.04,,,0.31,Wunderground v.1.15,2013-02-22 01:47:00,
2013-02-21 17:52:00,44.6,43.8,30.16,WNW,301,0.0,0.0,97,0.00,,,0.31,Wunderground v.1.15,2013-02-22 01:52:00,
2013-02-21 17:58:00,44.6,43.8,30.15,WNW,301,0.0,1.0,97,0.00,,,0.31,Wunderground v.1.15,2013-02-22 01:58:00,
2013-02-21 18:04:00,44.6,44.1,30.15,WNW,301,0.0,0.0,98,0.00,,,0.31,Wunderground v.1.15,2013-02-22 02:04:00,
2013-02-21 18:09:00,44.5,44.0,30.15,WNW,301,0.0,0.0,98,0.00,,,0.31,Wunderground v.1.15,2013-02-22 02:09:00,
2013-02-21 18:15:00,44.5,44.0,30.16,WNW,301,0.0,0.0,98,0.00,,,0.31,Wunderground v.1.15,2013-02-22 02:15:00,
2013-02-21 18:20:00,44.4,43.6,30.16,WNW,301,0.0,0.0,97,0.00,,,0.31,Wunderground v.1.15,2013-02-22 02:20:00,
2013-02-21 18:26:00,44.3,43.5,30.16,WNW,301,0.0,0.0,97,0.00,,,0.31,Wunderground v.1.15,2013-02-22 02:26:00,
2013-02-21 18:32:00,44.2,43.4,30.16,WNW,301,0.0,0.0,97,0.00,,,0.31,Wunderground v.1.15,2013-02-22 02:32:00,
2013-02-21 18:37:00,44.1,43.6,30.17,WNW,301,0.0,0.0,98,0.00,,,0.31,Wunderground v.1.15,2013-02-22 02:37:00,
2013-02-21 18:43:00,44.0,43.5,30.17,WNW,301,0.0,0.0,98,0.00,,,0.31,Wunderground v.1.15,2013-02-22 02:43:00,
2013-02-21 18:48:00,44.0,43.5,30.17,WNW,301,0.0,0.0,98,0.00,,,0.31,Wunderground v.1.15,2013-02-22 02:48:00,
2013-02-21 18:54:00,43.9,43.4,30.17,WNW,301,0.0,0.0,98,0.00,,,0.31,Wunderground v.1.15,2013-02-22 02:54:00,
2013-02-21 19:00:00,43.8,43.3,30.17,WNW,301,0.0,0.0,98,0.00,,,0.31,Wunderground v.1.15,2013-02-22 03:00:00,
2013-02-21 19:06:00,43.8,43.3,30.17,WNW,301,0.0,0.0,98,0.00,,,0.31,Wunderground v.1.15,2013-02-22 03:06:00,
2013-02-21 19:12:00,43.7,43.2,30.17,WNW,301,0.0,0.0,98,0.00,,,0.31,Wunderground v.1.15,2013-02-22 03:12:00,
2013-02-21 19:18:00,43.6,43.1,30.17,WNW,301,0.0,0.0,98,0.00,,,0.31,Wunderground v.1.15,2013-02-22 03:18:00,
2013-02-21 19:24:00,43.6,43.1,30.17,WNW,301,0.0,0.0,98,0.00,,,0.31,Wunderground v.1.15,2013-02-22 03:24:00,
2013-02-21 19:30:00,43.6,43.1,30.17,WNW,301,0.0,0.0,98,0.00,,,0.31,Wunderground v.1.15,2013-02-22 03:30:00,
2013-02-21 19:36:00,43.5,43.0,30.17,WNW,301,0.0,0.0,98,0.00,,,0.31,Wunderground v.1.15,2013-02-22 03:36:00,
2013-02-21 19:42:00,43.4,42.9,30.17,WNW,301,0.0,0.0,98,0.00,,,0.31,Wunderground v.1.15,2013-02-22 03:42:00,
2013-02-21 19:48:00,43.4,42.9,30.17,WNW,301,0.0,0.0,98,0.00,,,0.31,Wunderground v.1.15,2013-02-22 03:48:00,
2013-02-21 19:54:00,43.3,42.8,30.17,WNW,301,0.0,0.0,98,0.00,,,0.31,Wunderground v.1.15,2013-02-22 03:54:00,
2013-02-21 20:00:00,43.2,42.7,30.17,WNW,301,0.0,0.0,98,0.00,,,0.31,Wunderground v.1.15,2013-02-22 04:00:00,
2013-02-21 20:06:00,43.2,42.7,30.16,WNW,301,0.0,0.0,98,0.00,,,0.31,Wunderground v.1.15,2013-02-22 04:06:00,
2013-02-21 20:12:00,43.1,42.6,30.16,WNW,301,0.0,0.0,98,0.00,,,0.31,Wunderground v.1.15,2013-02-22 04:12:00,
2013-02-21 20:18:00,43.0,42.5,30.17,WNW,301,0.0,0.0,98,0.00,,,0.31,Wunderground v.1.15,2013-02-22 04:18:00,
2013-02-21 20:24:00,43.0,42.5,30.17,WNW,301,0.0,0.0,98,0.00,,,0.31,Wunderground v.1.15,2013-02-22 04:24:00,
2013-02-21 20:29:00,43.0,42.5,30.16,WNW,301,0.0,0.0,98,0.00,,,0.31,Wunderground v.1.15,2013-02-22 04:29:00,
2013-02-21 20:34:00,42.9,42.4,30.16,WNW,301,0.0,0.0,98,0.00,,,0.31,Wunderground v.1.15,2013-02-22 04:34:00,
2013-02-21 20:39:00,42.9,42.4,30.17,WNW,301,0.0,0.0,98,0.00,,,0.31,Wunderground v.1.15,2013-02-22 04:39:00,
2013-02-21 20:44:00,42.8,42.3,30.17,WNW,301,0.0,0.0,98,0.00,,,0.31,Wunderground v.1.15,2013-02-22 04:44:00,
2013-02-21 20:50:00,42.8,42.3,30.17,WNW,301,0.0,0.0,98,0.00,,,0.32,Wunderground v.1.15,2013-02-22 04:50:00,
2013-02-21 20:56:00,42.7,42.2,30.17,WNW,301,0.0,0.0,98,0.11,,,0.33,Wunderground v.1.15,2013-02-22 04:56:00,
2013-02-21 21:00:00,42.7,42.2,30.17,WNW,301,0.0,0.0,98,0.06,,,0.33,Wunderground v.1.15,2013-02-22 05:00:00,
2013-02-21 21:03:00,42.7,42.2,30.17,WNW,301,0.0,0.0,98,0.05,,,0.33,Wunderground v.1.15,2013-02-22 05:03:00,
2013-02-21 21:05:00,42.7,42.2,30.17,WNW,301,0.0,0.0,98,0.04,,,0.33,Wunderground v.1.15,2013-02-22 05:05:00,
2013-02-21 21:07:00,42.7,42.2,30.17,WNW,301,0.0,0.0,98,0.04,,,0.33,Wunderground v.1.15,2013-02-22 05:07:00,
2013-02-21 21:12:00,42.7,42.2,30.17,WNW,301,0.0,0.0,98,0.00,,,0.33,Wunderground v.1.15,2013-02-22 05:12:00,
2013-02-21 21:18:00,42.7,42.2,30.17,WNW,301,0.0,0.0,98,0.00,,,0.33,Wunderground v.1.15,2013-02-22 05:18:00,
2013-02-21 21:24:00,42.7,42.4,30.16,WNW,301,0.0,0.0,99,0.00,,,0.33,Wunderground v.1.15,2013-02-22 05:24:00,
2013-02-21 21:30:00,42.7,42.4,30.16,WNW,301,0.0,0.0,99,0.00,,,0.33,Wunderground v.1.15,2013-02-22 05:30:00,
2013-02-21 21:36:00,42.7,42.4,30.16,WNW,301,0.0,0.0,99,0.00,,,0.33,Wunderground v.1.15,2013-02-22 05:36:00,
2013-02-21 21:42:00,42.7,42.4,30.17,WNW,301,0.0,0.0,99,0.00,,,0.33,Wunderground v.1.15,2013-02-22 05:42:00,
2013-02-21 21:47:00,42.7,42.4,30.17,WNW,301,0.0,0.0,99,0.00,,,0.33,Wunderground v.1.15,2013-02-22 05:47:00,
2013-02-21 21:53:00,42.7,42.4,30.17,WNW,301,0.0,0.0,99,0.00,,,0.33,Wunderground v.1.15,2013-02-22 05:53:00,
2013-02-21 21:59:00,42.6,42.3,30.17,WNW,301,0.0,0.0,99,0.00,,,0.33,Wunderground v.1.15,2013-02-22 05:59:00,
2013-02-21 22:04:00,42.6,42.3,30.18,WNW,301,0.0,0.0,99,0.00,,,0.33,Wunderground v.1.15,2013-02-22 06:04:00,
2013-02-21 22:10:00,42.6,42.3,30.18,WNW,301,0.0,0.0,99,0.00,,,0.33,Wunderground v.1.15,2013-02-22 06:10:00,
2013-02-21 22:16:00,42.5,42.2,30.18,WNW,301,0.0,0.0,99,0.00,,,0.33,Wunderground v.1.15,2013-02-22 06:16:00,
2013-02-21 22:21:00,42.5,42.0,30.18,WNW,301,0.0,0.0,98,0.00,,,0.33,Wunderground v.1.15,2013-02-22 06:21:00,
2013-02-21 22:27:00,42.5,42.0,30.18,WNW,301,0.0,0.0,98,0.00,,,0.33,Wunderground v.1.15,2013-02-22 06:27:00,
2013-02-21 22:33:00,42.5,42.0,30.18,WNW,301,0.0,0.0,98,0.00,,,0.33,Wunderground v.1.15,2013-02-22 06:33:00,
2013-02-21 22:39:00,42.4,41.9,30.18,WNW,301,0.0,0.0,98,0.00,,,0.33,Wunderground v.1.15,2013-02-22 06:39:00,
2013-02-21 22:45:00,42.4,41.9,30.18,WNW,301,0.0,0.0,98,0.00,,,0.33,Wunderground v.1.15,2013-02-22 06:45:00,
2013-02-21 22:51:00,42.5,42.2,30.18,WNW,301,0.0,0.0,99,0.00,,,0.33,Wunderground v.1.15,2013-02-22 06:51:00,
2013-02-21 22:57:00,42.5,42.2,30.18,WNW,301,0.0,0.0,99,0.00,,,0.33,Wunderground v.1.15,2013-02-22 06:57:00,
2013-02-21 23:03:00,42.5,42.2,30.18,WNW,301,0.0,0.0,99,0.00,,,0.33,Wunderground v.1.15,2013-02-22 07:03:00,
2013-02-21 23:09:00,42.6,42.3,30.19,WNW,301,0.0,0.0,99,0.00,,,0.33,Wunderground v.1.15,2013-02-22 07:09:00,
2013-02-21 23:14:00,42.5,42.2,30.18,WNW,301,0.0,0.0,99,0.00,,,0.33,Wunderground v.1.15,2013-02-22 07:14:00,
2013-02-21 23:20:00,42.7,42.4,30.18,WNW,301,0.0,0.0,99,0.00,,,0.33,Wunderground v.1.15,2013-02-22 07:20:00,
2013-02-21 23:26:00,42.7,42.4,30.18,WNW,301,0.0,0.0,99,0.00,,,0.33,Wunderground v.1.15,2013-02-22 07:26:00,
2013-02-21 23:32:00,42.7,42.4,30.19,WNW,301,0.0,0.0,99,0.00,,,0.33,Wunderground v.1.15,2013-02-22 07:32:00,
2013-02-21 23:38:00,42.7,42.4,30.18,WNW,301,0.0,0.0,99,0.00,,,0.33,Wunderground v.1.15,2013-02-22 07:38:00,
2013-02-21 23:44:00,42.6,42.3,30.19,WNW,301,0.0,0.0,99,0.00,,,0.33,Wunderground v.1.15,2013-02-22 07:44:00,
2013-02-21 23:50:00,42.6,42.3,30.19,WNW,301,0.0,0.0,99,0.00,,,0.33,Wunderground v.1.15,2013-02-22 07:50:00,
2013-02-21 23:56:00,42.6,42.3,30.19,WNW,301,0.0,0.0,99,0.00,,,0.33,Wunderground v.1.15,2013-02-22 07:56:00,